Location: Newark
(44.3299°N, 23.7597°E)
Time: 03:46:49
(UTC+00:00)

Envisat - Pass Details

Date: 05 February 2022
Orbit: 764 x 765 km, 98.2° (Epoch: 21 May)

Event Time Altitude Azimuth Distance (km) Brightness Sun altitude
Rises 03:04:58 0° 16° (NNE) 3,241 6.5 -27.8°
Reaches altitude 10° 03:07:19 10° 20° (NNE) 2,311 5.7 -27.4°
Maximum altitude 03:12:22 63° 101° (E) 855 3.4 -26.5°
Drops below altitude 10° 03:17:23 10° 183° (S) 2,296 5.4 -25.6°
Sets 03:19:42 0° 186° (S) 3,218 6.2 -25.2°
